Regional Weather Roundup
Issued by NWS Sioux Falls, SD

Home | Current Version | Previous Version | Graphics & Text | Print | Product List | Glossary On
Versions: 1 2 3 4 5 6 7 8 9 10 11 12 13 14 15 16 17 18 19 20 21 22 23 24 25 26 27 28 29 30 31 32 33 34 35 36 37 38 39 40 41 42 43 44 45 46 47 48 49 50
000
ASUS43 KFSD 201210
RWRFSD

WEATHER ROUNDUP FOR SE SOUTH DAKOTA/SW MINNESOTA/NW IOWA
NATIONAL WEATHER SERVICE SIOUX FALLS SD
600 AM CST MON NOV 20 2017

NOTE: "FAIR" INDICATES FEW OR NO CLOUDS BELOW 12,000 FEET WITH NO
SIGNIFICANT WEATHER AND OR OBSTRUCTIONS TO VISIBILITY.


SDZ038>040-050-052>070-201300-
SOUTHEAST SOUTH DAKOTA

CITY           SKY/WX    TMP DP  RH WIND       PRES   REMARKS
BROOKINGS      CLOUDY    28  23  81 SE7       29.60  WCI  21
CHAMBERLAIN    CLOUDY    31  22  69 SW7       29.59F WCI  25
6HR MIN TEMP:  28; 6HR MAX TEMP:  37;

HURON          CLOUDY    26  22  84 S6        29.58F WCI  19
6HR MIN TEMP:  26; 6HR MAX TEMP:  32;

MADISON        FAIR      27  27 100 S10       29.60F WCI  17
MITCHELL       CLOUDY    28  22  78 S5        29.60F WCI  23
6HR MIN TEMP:  25; 6HR MAX TEMP:  34;

SIOUX FALLS    CLOUDY    32  24  72 S7        29.62F WCI  26
6HR MIN TEMP:  24; 6HR MAX TEMP:  38;

WINNER         FAIR      37  19  48 SW10      29.60S
YANKTON        CLOUDY    33  24  69 SE6       29.63F WCI  28
$$

MNZ071-072-080-081-089-090-097-098-201300-
SOUTHWEST MINNESOTA

CITY           SKY/WX    TMP DP  RH WIND       PRES   REMARKS
FAIRMONT       CLOUDY    28  24  85 S12       29.68F WCI  18
JACKSON        CLOUDY    32  27  80 S12       29.66F WCI  23
LUVERNE        CLOUDY    23  19  86 CALM      29.65F
MARSHALL       CLOUDY    34  23  64 S8        29.60F WCI  27
6HR MIN TEMP:  29; 6HR MAX TEMP:  38;

MONTEVIDEO     CLOUDY    30  25  80 S5        29.59F WCI  25
PIPESTONE      CLOUDY    28  23  80 S7        29.61F WCI  21
REDWOOD FALLS  CLOUDY    27  21  78 S9        29.62F WCI  18
TRACY          CLOUDY    36  27  69 SW16      29.60F
WINDOM         CLOUDY    34  19  55 S6        29.64F WCI  29
WORTHINGTON    CLOUDY    33  24  69 S15       29.63F WCI  23
$$

IAZ001>003-012>014-020>022-031-032-NEZ013-014-SDZ071-201300-
NORTHWEST IOWA

CITY           SKY/WX    TMP DP  RH WIND       PRES   REMARKS
CHEROKEE       CLOUDY    31  26  79 S6        29.70F WCI  26
DENISON        CLEAR     36  25  64 S10       29.76F
ESTHERVILLE    CLOUDY    25  23  92 S12       29.68F WCI  14
LE MARS        CLOUDY    32  27  80 S10       29.68F WCI  24
ORANGE CITY    CLOUDY    34  28  80 S9        29.67F WCI  26
SHELDON        CLOUDY    30  25  80 S7        29.65F WCI  23
SIOUX CITY     CLOUDY    27  23  85 SE9       29.70F WCI  18
6HR MIN TEMP:  26; 6HR MAX TEMP:  31;

SPENCER        CLOUDY    28  22  78 S7        29.68F WCI  21
6HR MIN TEMP:  26; 6HR MAX TEMP:  35;

STORM LAKE     CLEAR     32  25  74 SW13      29.70F WCI  22
$$

ABBREVIATIONS USED IN REMARKS
   TC - TEMPERATURE IN CELSIUS
  WCI - WIND CHILL INDEX
   HX - HEAT INDEX
  VSB - VISIBILITY





USA.gov is the U.S. government's official web portal to all federal, state and local government web resources and services.